EW4557 Weather Reports


time (UTC)temp
C
wind
direction
speed
KPH
gust
KPH
rain 1hr
cm
rain 24hr
cm
rain mn
cm
humidity
%
barometer
mb
20260505140136 11 0 17.7 29.0 0.00 0.00 0.00 54 1011.1
20260505125015 11 0 6.4 19.3 0.00 0.00 0.00 55 1010.7
20260505124015 11 0 8.0 19.3 0.00 0.00 0.00 55 1010.4
20260505123015 11 0 4.8 14.5 0.00 0.00 0.00 56 1010.6
20260505122015 11 0 9.7 25.7 0.00 0.00 0.00 56 1010.5
20260505120055 12 0 6.4 16.1 0.00 0.00 0.00 55 1009.9
20260505115015 12 0 9.7 22.5 0.00 0.00 0.00 55 1010.0
20260505114135 12 0 9.7 19.3 0.00 0.00 0.00 55 1010.0
20260505113055 13 0 9.7 19.3 0.00 0.00 0.00 55 1010.0
20260505112015 13 0 9.7 20.9 0.00 0.00 0.00 55 1009.8
20260505111015 13 0 9.7 17.7 0.00 0.00 0.00 54 1009.7
20260505102055 17 0 8.0 20.9 0.00 0.00 0.00 40 1009.8
20260505101015 16 0 6.4 22.5 0.00 0.00 0.00 40 1009.6
20260505100015 15 0 6.4 16.1 0.00 0.00 0.00 45 1009.3
20260505094015 14 0 1.6 4.8 0.00 0.00 0.00 47 1009.0
20260505092015 15 0.0 0.0 0.00 0.00 0.00 39 1009.0
20260505091015 16 0 0.0 3.2 0.00 0.00 0.00 38 1008.8
20260505090135 16 0.0 4.8 0.00 0.00 0.00 36 1008.9
20260505085055 16 0 1.6 4.8 0.00 0.00 0.00 36 1008.7
20260505084135 15 0 3.2 8.0 0.00 0.00 0.00 39 1008.5
20260505083015 12 0 6.4 17.7 0.00 0.00 0.00 49 1007.9
20260505082015 12 0.0 0.0 0.00 0.00 0.00 55 1007.6
20260505081015 12 0.0 0.0 0.00 0.00 0.00 49 1007.6
20260505080055 12 0.0 0.0 0.00 0.00 0.00 49 1007.7
20260505075015 12 0.0 0.0 0.00 0.00 0.00 48 1007.5
20260505074055 13 0.0 0.0 0.00 0.00 0.00 47 1007.3
20260505073015 13 0.0 0.0 0.00 0.00 0.00 48 1007.4
20260505072055 13 0.0 0.0 0.00 0.00 0.00 48 1007.7
20260505070055 13 0.0 0.0 0.00 0.00 0.00 46 1007.3
20260505065015 13 0 1.6 6.4 0.00 0.00 0.00 46 1007.1
20260505063055 13 0 0.0 3.2 0.00 0.00 0.00 44 1006.9
20260505062057 13 0 0.0 4.8 0.00 0.00 0.00 43 1006.9
20260505061017 13 0.0 0.0 0.00 0.00 0.00 41 1006.8
20260505060016 14 0.0 0.0 0.00 0.00 0.00 39 1006.8
20260505055056 14 0.0 0.0 0.00 0.00 0.00 40 1006.9
20260505054016 15 0.0 0.0 0.00 0.00 0.00 34 1006.8
20260505053016 15 0.0 1.6 0.00 0.00 0.00 36 1006.8
20260505052056 15 0.0 0.0 0.00 0.00 0.00 35 1006.9
20260505051056 16 0.0 0.0 0.00 0.00 0.00 33 1007.0
20260505041016 21 0 1.6 4.8 0.00 0.00 0.00 20 1007.6
20260505040136 21 0 1.6 4.8 0.00 0.00 0.00 20 1007.2
20260505035016 21 0 1.6 4.8 0.00 0.00 0.00 20 1007.1
20260505034016 21 0 1.6 4.8 0.00 0.00 0.00 20 1007.1
20260505033056 21 0 0.0 3.2 0.00 0.00 0.00 19 1006.9
20260505031015 22 0 0.0 1.6 0.00 0.00 0.00 18 1006.7
20260505030015 22 0 1.6 3.2 0.00 0.00 0.00 17 1006.6
20260505025015 22 0 3.2 9.7 0.00 0.00 0.00 16 1006.4
20260505024015 22 0 1.6 8.0 0.00 0.00 0.00 16 1006.2
20260505023015 23 0 1.6 8.0 0.00 0.00 0.00 16 1006.2
20260505022015 23 0 1.6 8.0 0.00 0.00 0.00 15 1005.7
20260505021015 23 0 3.2 12.9 0.00 0.00 0.00 15 1005.7
20260505020056 24 0 4.8 17.7 0.00 0.00 0.00 15 1005.6
20260505015015 24 0 8.0 22.5 0.00 0.00 0.00 16 1005.3
20260505014055 24 0 8.0 19.3 0.00 0.00 0.00 16 1005.1
20260505012055 25 0 8.0 22.5 0.00 0.00 0.00 16 1004.7
20260505011015 25 0 9.7 29.0 0.00 0.00 0.00 15 1004.7
20260505010135 25 0 9.7 25.7 0.00 0.00 0.00 14 1004.6
20260505005055 25 0 11.3 25.7 0.00 0.00 0.00 14 1004.5
20260505004055 25 0 16.1 33.8 0.00 0.00 0.00 14 1004.8
20260505003135 26 0 14.5 29.0 0.00 0.00 0.00 14 1004.9
20260505002135 26 0 16.1 29.0 0.00 0.00 0.00 13 1004.9
20260505001015 26 0 11.3 35.4 0.00 0.00 0.00 13 1005.0
20260505000055 26 0 19.3 33.8 0.00 0.00 0.00 13 1005.3
20260504235055 26 0 14.5 30.6 0.00 0.00 0.00 12 1005.4
20260504234135 26 0 17.7 38.6 0.00 0.00 0.00 12 1005.4
20260504233015 26 0 16.1 33.8 0.00 0.00 0.00 12 1005.8
20260504232015 26 0 20.9 37.0 0.00 0.00 0.00 11 1005.9
20260504231015 26 0 16.1 33.8 0.00 0.00 0.00 11 1006.0
20260504225055 26 0 17.7 43.5 0.00 0.00 0.00 11 1006.2
20260504224015 26 0 16.1 29.0 0.00 0.00 0.00 12 1006.1
20260504223055 26 0 14.5 27.4 0.00 0.00 0.00 12 1006.0
20260504222015 26 0 14.5 29.0 0.00 0.00 0.00 12 1006.2
20260504221015 27 0 17.7 32.2 0.00 0.00 0.00 11 1006.6
20260504220015 27 0 19.3 35.4 0.00 0.00 0.00 11 1006.9
20260504215055 27 0 17.7 38.6 0.00 0.00 0.00 11 1007.0
20260504214015 27 0 17.7 32.2 0.00 0.00 0.00 12 1007.1
20260504213015 27 0 14.5 32.2 0.00 0.00 0.00 14 1007.4
20260504212055 26 0 11.3 33.8 0.00 0.00 0.00 15 1007.6
20260504211015 26 0 11.3 27.4 0.00 0.00 0.00 16 1007.8
20260504205015 26 0 14.5 30.6 0.00 0.00 0.00 17 1008.1
20260504204137 27 0 14.5 32.2 0.00 0.00 0.00 18 1008.4
20260504202137 26 0 11.3 25.7 0.00 0.00 0.00 18 1008.6
20260504201016 27 0 11.3 22.5 0.00 0.00 0.00 18 1008.7
20260504200057 27 0 9.7 25.7 0.00 0.00 0.00 19 1009.1
20260504195016 27 0 12.9 29.0 0.00 0.00 0.00 21 1009.4
20260504193055 27 0 11.3 53.1 0.00 0.00 0.00 22 1008.7
20260504191136 26 0 6.4 17.7 0.00 0.00 0.00 27 1008.7
20260504190016 26 0 8.0 16.1 0.00 0.00 0.00 28 1008.9
20260504185137 26 0 6.4 12.9 0.00 0.00 0.00 28 1009.5
20260504184016 25 0 3.2 9.7 0.00 0.00 0.00 28 1009.8
20260504183016 25 0 3.2 17.7 0.00 0.00 0.00 29 1010.3
20260504182056 25 0 3.2 12.9 0.00 0.00 0.00 29 1010.4
20260504181016 25 0 4.8 17.7 0.00 0.00 0.00 29 1010.6
20260504180016 25 0 4.8 20.9 0.00 0.00 0.00 29 1010.4
20260504175016 25 0 4.8 17.7 0.00 0.00 0.00 30 1010.8
20260504172136 23 0 6.4 16.1 0.00 0.00 0.00 33 1011.3
20260504160136 21 0 1.6 6.4 0.00 0.00 0.00 39 1012.1
20260504151136 18 0 1.6 3.2 0.00 0.00 0.00 45 1011.8